Location: 10033 Water Well
(34.0865°N, 106.8959°W)
Time: 21:49:04
(UTC+00:00)

Aurora 2 Rocket - Pass Details

Date: 13 January 2026
Orbit: 385 x 1537 km, 25.0° (Epoch: 11 February)

Event Time Altitude Azimuth Distance (km) Brightness Sun altitude
Rises 00:58:16 0° 236° (SW) 2,244 7.3 -8.4°
Maximum altitude 01:02:48 15° 172° (S) 1,154 4.1 -9.2°
Drops below altitude 10° 01:04:49 10° 134° (SE) 1,486 4.3 -9.6°
Enters shadow 01:06:17 - 119° (ESE) 1,951 4.7 -9.9°
